Weather History for Kuusamo, Finland

Change the Weather History Date:

Monday, April 22, 2013

  Actual Average Record
Temperature  
Mean Temperature 37 °F -  
Max Temperature 48 °F - - ()
Min Temperature 26 °F - - ()
Degree Days  
Heating Degree Days 28    
Moisture  
Dew Point 27 °F    
Average Humidity 63    
Maximum Humidity 100    
Minimum Humidity 34    
Precipitation  
Precipitation 0.00 in 0.05 in - ()
Sea Level Pressure  
Sea Level Pressure 29.99 in    
Wind  
Wind Speed 6 mph ()    
Max Wind Speed 18 mph    
Max Gust Speed -    
T = Trace of Precipitation, MM = Missing Value Source: Averaged Metar Reports

Daily Weather History Graph

Daily Weather History Graph

Search for Another Location

Airport:

Trip Planner

Search our weather history database for the weather conditions in past years. The results will help you decide how hot, cold, wet, or windy it might be!

Date:

Astronomy

Apr. 22, 2013 Rise Set
Actual Time 4:55 AM EEST 9:09 PM EEST
Civil Twilight 3:47 AM EEST 10:18 PM EEST
Nautical Twilight 1:34 AM EEST 12:29 AM EEST
Astronomical Twilight Sun does not rise Sun does not rise
Moon 4:17 PM EEST (4/22) 4:11 AM EEST (4/22)
Length of Visible Light 18h 30m
Length of Day
16h 14m
Waxing Gibbous, 85% of the Moon is Illuminated
Apr 22
Waxing Gibbous
Apr 25
Full
May 2
Last Quarter
May 10
New
May 18
First Quarter

Hourly Weather History & Observations

Time (EEST) Temp. Windchill Dew Point Humidity Pressure Visibility Wind Dir Wind Speed Gust Speed Precip Events Conditions
12:20 AM 28.4 °F - 24.8 °F 86% 30.12 in - Calm Calm - N/A   Clear
12:50 AM 30.2 °F 26.7 °F 24.8 °F 80% 30.12 in - East 3.5 mph - N/A   Clear
1:20 AM 30.2 °F 26.7 °F 24.8 °F 80% 30.12 in - ESE 3.5 mph - N/A   Clear
1:50 AM 30.2 °F - 24.8 °F 80% 30.12 in - ESE 2.3 mph - N/A   Clear
2:20 AM 28.4 °F - 24.8 °F 86% 30.12 in - SE 1.2 mph - N/A   Clear
2:50 AM 28.4 °F - 24.8 °F 86% 30.12 in - East 2.3 mph - N/A   Clear
3:20 AM 28.4 °F - 24.8 °F 86% 30.12 in - East 2.3 mph - N/A   Clear
3:50 AM 28.4 °F 24.6 °F 24.8 °F 86% 30.12 in - East 3.5 mph - N/A   Clear
4:20 AM 28.4 °F - 26.6 °F 93% 30.09 in - East 1.2 mph - N/A   Clear
4:50 AM 26.6 °F - 26.6 °F 100% 30.09 in - ESE 1.2 mph - N/A   Clear
5:20 AM 28.4 °F 24.6 °F 26.6 °F 93% 30.09 in - ESE 3.5 mph - N/A   Clear
5:50 AM 28.4 °F - 26.6 °F 93% 30.09 in - ESE 2.3 mph - N/A   Clear
6:20 AM 30.2 °F 26.7 °F 26.6 °F 86% 30.09 in - ESE 3.5 mph - N/A   Clear
6:50 AM 30.2 °F 25.4 °F 26.6 °F 86% 30.09 in - ESE 4.6 mph - N/A   Clear
7:20 AM 33.8 °F 30.8 °F 28.4 °F 81% 30.09 in - ESE 3.5 mph - N/A   Clear
7:50 AM 35.6 °F 30.7 °F 28.4 °F 75% 30.06 in - SE 5.8 mph - N/A   Clear
8:20 AM 37.4 °F 31.4 °F 28.4 °F 70% 30.06 in - SE 8.1 mph - N/A   Clear
8:50 AM 39.2 °F 33.0 °F 30.2 °F 70% 30.06 in - SE 9.2 mph - N/A   Clear
9:20 AM 41.0 °F 34.7 °F 30.2 °F 65% 30.04 in - SSE 10.4 mph - N/A   Clear
9:50 AM 42.8 °F 36.6 °F 30.2 °F 61% 30.04 in - SSE 11.5 mph - N/A   Clear
10:20 AM 42.8 °F 37.5 °F 30.2 °F 61% 30.04 in - SSE 9.2 mph - N/A   Clear
10:50 AM 44.6 °F 39.7 °F 30.2 °F 57% 30.04 in - South 9.2 mph - N/A   Clear
11:20 AM 46.4 °F 40.7 °F 28.4 °F 50% 30.01 in - South 12.7 mph - N/A   Clear
11:50 AM 46.4 °F 39.8 °F 28.4 °F 50% 30.01 in - South 16.1 mph - N/A   Clear
12:20 PM 46.4 °F 39.8 °F 28.4 °F 50% 29.98 in - South 16.1 mph - N/A   Clear
12:50 PM 46.4 °F 39.2 °F 28.4 °F 50% 29.98 in - South 18.4 mph - N/A   Clear
1:20 PM 48.2 °F - 28.4 °F 46% 29.98 in - South 17.3 mph - N/A   Clear
1:50 PM 46.4 °F 39.8 °F 28.4 °F 50% 29.98 in - South 16.1 mph - N/A   Clear
2:20 PM 48.2 °F - 26.6 °F 43% 29.95 in - South 18.4 mph - N/A   Clear
2:50 PM 48.2 °F - 24.8 °F 40% 29.95 in - South 16.1 mph - N/A   Clear
3:20 PM 48.2 °F - 23.0 °F 37% 29.95 in - South 16.1 mph - N/A   Clear
3:50 PM 48.2 °F - 23.0 °F 37% 29.92 in - South 13.8 mph - N/A   Clear
4:20 PM 48.2 °F - 21.2 °F 34% 29.92 in - South 18.4 mph - N/A   Clear
4:50 PM 48.2 °F - 24.8 °F 40% 29.92 in - South 13.8 mph - N/A   Clear
5:20 PM 48.2 °F - 26.6 °F 43% 29.89 in - South 15.0 mph - N/A   Clear
5:50 PM 48.2 °F - 26.6 °F 43% 29.89 in - SSW 13.8 mph - N/A   Clear
6:20 PM 46.4 °F 40.7 °F 28.4 °F 50% 29.89 in - SSW 12.7 mph - N/A   Clear
6:50 PM 46.4 °F 40.4 °F 28.4 °F 50% 29.89 in - South 13.8 mph - N/A   Clear
7:20 PM 46.4 °F 40.1 °F 26.6 °F 46% 29.86 in - SSW 15.0 mph - N/A   Clear
7:50 PM 44.6 °F 39.2 °F 28.4 °F 53% 29.86 in - SSW 10.4 mph - N/A   Clear
8:20 PM 42.8 °F 38.6 °F 28.4 °F 57% 29.86 in - South 6.9 mph - N/A   Clear
8:50 PM 42.8 °F 38.6 °F 28.4 °F 57% 29.86 in - South 6.9 mph - N/A   Clear
9:20 PM 42.8 °F 37.0 °F 28.4 °F 57% 29.86 in - South 10.4 mph - N/A   Clear
9:50 PM 42.8 °F 37.0 °F 26.6 °F 53% 29.83 in - South 10.4 mph - N/A   Clear
10:20 PM 41.0 °F 35.8 °F 26.6 °F 57% 29.83 in - SSE 8.1 mph - N/A   Clear
10:50 PM 39.2 °F 34.2 °F 26.6 °F 61% 29.83 in - SSE 6.9 mph - N/A   Clear
11:20 PM 39.2 °F 34.2 °F 26.6 °F 61% 29.83 in - SSE 6.9 mph - N/A   Clear
11:50 PM 37.4 °F 31.4 °F 26.6 °F 65% 29.83 in - SE 8.1 mph - N/A   Clear